Flag for U.S.A. Weather past 2 weeks in Fargo, North Dakota, U.S.A.

Now
79 °F

Sunny.


Feels Like: 79 °F
Forecast: 60 / 77 °F
Wind: 17 mph from Northwest

Location: Hector International Airport

Current Time: Aug 2, 2015 at 6:12:35 PM

Latest Report: Aug 2, 2015 at 4:53 PM


Visibility: 10 mi

Pressure: 29.82 "Hg

Humidity: 34%

Dew point: 48 °F

Location of FargoLocation

Historic Weather in Fargo — Graph

°F

Fargo temperature yesterday

Maximum temperature yesterday: 88 °F (at 4:53 PM)
Minimum temperature yesterday: 57 °F (at 3:53 AM)
Average temperature yesterday: 73 °F

Past Weeks' High & Low Weather Summary

 TemperatureHumidityPressure
High90 °F (Jul 27, 3:53 PM)97% (Jul 26, 5:53 AM)30.09 "Hg (Jul 26, 5:53 AM)
Low56 °F (Jul 31, 5:53 AM)32% (Jul 19, 5:53 PM)29.54 "Hg (Jul 28, 5:53 AM)
Average74 °F65%29.85 "Hg
* Reported Jul 18 4:53 PM — Aug 2 4:53 PM, Fargo, Weather by CustomWeather, © 2015

Note: Actual official high and low records may vary slightly from our data, if they occured in-between our weather recording intervals... More about our weather records

Advertising

Fargo weather history for previous 24 hours

 ConditionsComfort  
Time TempWeatherWind HumidityBarometerVisibility
4:53 PM
Sun, Aug 2
79 °FSunny.17 mph34%29.82 "Hg10 mi
3:53 PM80 °FScattered clouds.18 mph38%29.81 "Hg10 mi
2:53 PM80 °FScattered clouds.16 mph41%29.82 "Hg10 mi
1:53 PM77 °FScattered clouds.17 mph45%29.82 "Hg10 mi
12:53 PM75 °FBroken clouds.20 mph52%29.80 "Hg10 mi
11:53 AM76 °FPassing clouds.20 mph54%29.80 "Hg5 mi
10:53 AM74 °FSunny.20 mph57%29.79 "Hg10 mi
9:53 AM72 °FSunny.13 mph68%29.77 "Hg10 mi
8:53 AM68 °FSunny.14 mph76%29.75 "Hg10 mi
7:53 AM67 °FPassing clouds.14 mph81%29.71 "Hg10 mi
6:53 AM68 °FPassing clouds.14 mph78%29.66 "Hg10 mi
5:53 AM66 °FClear.10 mph90%29.59 "Hg10 mi
4:53 AM67 °FClear.6 mph90%29.59 "Hg10 mi
3:53 AM68 °FClear.10 mph90%29.62 "Hg10 mi
2:53 AM70 °FClear.3 mph87%29.63 "Hg10 mi
1:53 AM69 °FClear.3 mph87%29.63 "Hg10 mi
12:53 AM73 °FClear.No wind76%29.63 "Hg10 mi
11:53 PM
Sat, Aug 1
73 °FClear.7 mph79%29.64 "Hg10 mi
10:53 PM69 °FClear.5 mph87%29.69 "Hg10 mi
9:53 PM73 °FSunny.3 mph74%29.69 "Hg10 mi
8:53 PM77 °FSunny.5 mph66%29.70 "Hg10 mi
7:53 PM83 °FSunny.6 mph53%29.71 "Hg10 mi
6:53 PM85 °FSunny.6 mph48%29.72 "Hg10 mi
Weather by CustomWeather, © 2015

See weather overviewHow to use our weather pages